User: anonymous   Login
Location: Chanteloup
(48.8560°N, 2.7390°E)
Time: 18:21:29
(UTC+00:00)
Language:

H-2A R/B - Orbit

View from above orbital plane
View from above orbital plane
View from above satellite
View from above satellite

Ground track
Ground track

The orbit data is extracted from the following two-line orbital elements,

1 27601U 02056E   22021.05827010  .00000027  00000-0  24701-4 0  9996
2 27601  98.1801  36.0712 0071691 341.9280  80.5587 14.32029503998069
Epoch (UTC): 21 January 2022 01:23:54
Eccentricity: 0.0071691
inclination: 98.1801°
perigee height: 733 km
apogee height: 836 km
right ascension of ascending node: 36.0712°
argument of perigee: 341.9280°
revolutions per day: 14.32029503
mean anomaly at epoch: 80.5587°
orbit number at epoch: 99806

The dashed part of the orbit path shows where the satellite is in the earth's shadow,  

DLR